Location: ??????
(55.7522°N, 37.6156°E)
Time: 16:43:14
(UTC+00:00)

FENGYUN 3A - Pass Details

Date: 14 June 2025
Orbit: 820 x 834 km, 98.6° (Epoch: 13 July)

Event Time Altitude Azimuth Distance (km) Brightness Sun altitude
Rises 23:20:27 0° 18° (NNE) 3,369 9.2 -7.5°
Reaches altitude 10° 23:22:53 10° 24° (NNE) 2,431 7.9 -7.4°
Maximum altitude 23:28:07 51° 100° (E) 1,027 4.3 -7.0°
Drops below altitude 10° 23:33:20 10° 176° (S) 2,416 5.6 -6.7°
Enters shadow 23:34:44 - 180° (S) 2,953 6.0 -6.6°
